CAPE
0 0 0 0 0 0 0 2 0 3 0 0 1 0 0 0 0 0 0 0 0 0 0 0 0 0 0 0 0 0 0 0 0 0 0 0 0 0 0 0 5 7 4 0
0 0 0 0 0 0 0 13 9 6 1 0 0 0 0 0 0 0 0 0 0 0 0 0 0 0 0 0 0 0 0 0 0 0 0 0 0 0 0 0 0 0 0 0
0 0 0 0 0 0 0 9 0 4 8 0 0 1 0 0 0 0 0 0 0 0 0 0 0 0 0 0 0 0 0 0 0 0 0 0 0 0 0 0 0 0 0 0
0 0 0 0 0 0 0 0 1 3 0 0 1 0 0 0 0 0 0 0 0 0 0 0 0 0 0 0 0 0 0 0 0 0 0 0 0 0 0 0 0 0 0 0
0 0 0 0 0 0 0 0 0 3 2 0 3 0 0 0 0 0 0 0 0 0 0 0 0 0 0 0 0 0 1 0 0 0 0 0 0 0 0 0 0 0 0 0
1 0 0 0 0 0 7 0 0 9 2 2 2 0 0 0 0 0 2 6 3 2 4 1 2 0 1 1 0 0 0 0 0 0 0 0 0 0 0 0 0 0 0 0
0 0 0 0 0 0 0 0 0 2 5 5 3 0 0 0 1 0 0 0 0 3 0 0 0 0 0 0 0 0 1 4 7 1 0 0 0 0 0 0 0 0 0 0
0 0 0 0 0 0 0 0 0 0 0 2 0 0 0 0 0 0 0 0 0 0 0 0 0 0 0 0 0 0 2 8 3 1 0 0 0 0 0 0 0 0 0 0
0 0 0 0 0 0 0 0 0 0 0 0 0 0 0 0 0 0 0 0 0 0 0 0 0 0 0 0 1 4 5 8 0 5 1 0 0 0 0 0 0 0 0 0
2 0 0 0 0 0 0 0 0 0 0 0 0 0 0 0 0 0 0 1 2 4 3 2 0 0 0 0 0 0 2 1 0 0 3 0 0 0 0 0 0 10 17 16
2 0 0 0 0 0 0 0 0 0 0 0 0 0 0 0 0 0 3 6 5 4 6 6 5 1 0 0 0 0 0 0 1 3 2 0 0 0 5 7 0 3 6 2
1 1 0 0 0 0 0 0 0 0 0 0 0 0 0 0 0 0 0 5 4 9 9 5 13 6 7 2 1 0 0 0 0 0 0 0 0 0 0 8 3 0 0 0
8 0 2 4 0 0 0 0 0 1 0 0 0 0 0 0 0 0 0 0 0 2 10 9 5 2 8 6 2 2 0 1 0 0 0 0 0 0 0 0 1 1 0 3
13 8 3 5 5 0 0 0 0 0 0 0 0 0 0 0 0 0 0 0 0 0 1 9 2 4 6 3 2 0 0 1 0 0 0 0 0 0 0 0 0 0 0 6
5 1 1 4 10 0 0 0 0 0 0 0 0 0 0 0 0 0 0 0 0 9 0 0 0 4 3 5 3 0 0 0 0 0 1 0 0 0 2 3 6 7 4 0
13 7 8 2 3 0 0 0 0 3 2 0 0 0 0 0 0 2 2 0 4 4 0 2 7 11 12 2 1 0 0 0 0 0 0 1 0 6 8 1 1 2 3 3
11 6 1 0 4 0 0 0 1 4 10 0 0 2 4 0 6 2 1 2 2 0 0 0 8 10 4 0 0 0 0 0 0 0 0 1 0 0 1 1 0 1 0 5
5 2 6 3 2 0 2 0 1 10 3 1 1 0 5 2 1 0 11 1 0 0 0 0 0 6 6 0 0 0 0 0 0 0 0 0 0 0 0 1 1 1 1 1
9 8 6 0 1 1 5 0 0 8 12 5 0 0 8 2 0 1 1 0 0 0 0 1 2 1 0 0 0 2 0 0 0 0 0 0 0 1 1 1 0 0 0 3
8 6 0 0 2 0 0 5 2 0 0 4 2 0 3 2 1 0 0 0 0 0 0 1 0 0 0 0 0 0 0 0 0 0 0 2 1 0 0 1 3 4 5 2
7 0 1 4 2 14 15 3 5 1 0 0 0 0 0 3 2 1 0 1 4 2 3 4 3 0 0 0 0 0 0 0 1 1 0 3 1 1 1 1 2 1 2 3
3 1 1 1 0 0 0 0 13 1 0 0 1 1 0 0 23 12 1 1 1 2 7 5 0 0 0 1 0 0 0 1 1 1 1 1 1 1 1 2 2 3 2 2
1 0 0 0 0 0 2 14 7 4 3 0 4 1 0 5 7 5 1 1 2 5 5 1 0 0 0 0 0 0 1 1 1 0 0 0 1 1 2 4 2 2 0 1
0 2 0 1 1 0 0 0 14 5 1 3 4 0 1 1 0 1 0 1 1 3 1 0 0 0 0 0 1 0 0 1 1 1 1 3 4 3 3 3 2 1 0 2
2 2 2 0 0 2 5 2 0 1 0 3 4 4 1 0 0 0 2 0 1 3 0 0 0 0 0 0 1 0 1 2 2 2 2 4 4 4 4 4 3 1 0 0
2 2 0 6 3 1 2 3 9 7 4 7 5 0 0 0 1 0 2 2 0 0 0 0 0 0 1 1 1 1 2 1 2 3 3 3 2 2 2 2 0 0 0 0
2 2 0 1 2 5 4 1 9 10 2 0 1 2 1 4 2 1 2 0 0 0 0 0 0 0 1 1 1 3 3 1 2 3 3 2 2 1 0 0 0 0 0 0
CIN
0 0 0 0 0 0 0 0 0 0 0 0 0 0 0 0 0 0 0 0 0 0 0 0 0 0 0 0 0 0 0 0 0 0 0 0 0 0 0 -1 -2 -2 -1 0
0 0 0 0 0 0 0 0 0 -1 0 0 0 0 0 0 0 0 0 0 0 0 0 0 0 0 0 0 0 0 0 0 0 0 0 0 0 0 0 0 0 0 0 0
0 0 0 0 0 0 0 -1 0 0 0 0 -1 -1 0 0 0 0 0 0 0 0 0 0 0 0 0 0 0 0 0 0 0 0 0 0 0 0 0 0 0 0 0 0
0 0 0 0 0 0 0 0 -5 -1 0 0 0 0 0 0 0 0 0 0 0 0 0 0 0 0 0 0 0 0 0 0 0 0 0 0 0 0 0 0 0 0 0 0
0 0 0 0 0 0 0 0 0 0 -1 0 -1 0 0 0 -1 0 0 0 0 0 0 0 0 0 0 0 0 -1 -1 0 0 0 0 0 0 0 0 0 0 0 0 0
-24 0 0 0 0 0 -1 0 0 0 -2 -1 0 0 0 0 0 0 -1 0 -1 -1 -1 0 0 0 0 -1 0 -1 -1 0 0 0 0 0 0 0 0 0 0 0 0 0
0 0 0 0 0 0 0 0 0 0 0 0 -1 0 0 0 0 0 0 0 0 -1 0 0 0 0 0 0 0 -1 -1 0 -1 -1 0 0 0 0 0 0 0 0 0 0
0 0 0 0 0 0 0 0 0 0 0 -1 0 0 0 0 0 0 0 0 0 0 0 0 0 0 0 0 0 0 -1 -1 -2 0 0 0 0 0 0 0 0 0 0 0
-16 0 0 0 0 0 0 0 0 0 0 0 0 0 0 0 0 0 0 0 0 0 0 0 0 0 0 0 0 0 0 -1 -1 -2 -2 0 0 0 0 0 0 0 0 0
-6 0 0 0 0 0 0 0 0 0 0 0 0 0 0 0 0 0 0 0 0 -1 -1 0 0 0 0 0 0 0 0 0 0 -1 -1 0 0 0 0 0 0 -5 -5 -5
-4 0 0 0 0 0 0 0 0 0 0 0 0 0 0 0 0 0 0 0 0 0 0 0 0 0 0 0 0 0 0 0 -1 -1 -1 0 0 0 -2 -4 0 -3 -5 -6
-4 -6 0 0 0 0 0 0 0 0 0 0 0 0 0 0 0 0 0 -1 0 -1 -1 -2 0 0 0 -1 -1 0 0 0 -2 0 -2 0 0 0 -2 -6 -3 0 0 0
-4 -1 -5 -3 0 0 0 0 0 -1 0 0 0 0 0 0 0 0 0 0 0 0 -1 0 -1 0 0 -1 -3 -4 0 -3 0 0 0 0 0 0 0 0 -3 -3 -1 -3
-4 -6 -6 -4 -4 0 0 0 0 0 0 0 0 0 0 0 0 0 0 0 0 0 -1 0 0 0 -1 -1 -3 0 0 -1 0 0 0 0 -1 0 0 0 -1 -1 0 -2
-2 -3 -8 -3 -1 0 0 0 0 0 0 0 0 0 0 0 0 0 0 0 -1 -1 0 0 0 -1 -1 -1 -1 -1 0 0 0 -1 -2 -2 0 0 -2 -3 -2 -2 -2 -1
0 -1 0 -1 -3 0 0 0 0 0 0 0 0 0 0 0 0 0 0 -1 0 -2 0 -1 0 -1 0 0 -1 0 0 0 0 0 -3 -2 0 -1 -1 -1 -2 -1 -1 -1
0 0 0 0 -3 0 0 0 0 -1 0 0 0 0 0 0 0 0 0 -1 0 0 0 0 0 0 0 0 0 0 0 0 0 0 0 -1 0 -1 -1 0 -1 -1 -1 -1
0 0 -1 -1 -3 -1 -1 -1 -6 0 0 0 0 0 0 -1 0 0 0 0 0 0 0 -3 -1 -1 0 -1 0 0 0 0 0 -1 0 0 0 0 0 -1 -1 0 -1 0
0 0 0 0 0 0 0 0 0 0 0 0 0 0 0 0 0 -1 0 0 0 0 0 0 0 -1 -1 0 0 -1 0 0 0 0 0 0 0 -1 0 -1 -1 0 -1 0
0 0 0 0 0 0 0 -1 0 0 0 0 0 0 0 0 -2 0 -3 0 0 0 0 0 0 0 0 0 0 0 0 0 0 0 0 0 0 0 -1 0 0 0 0 0
-1 0 0 -1 -3 -1 0 0 0 0 0 0 0 0 0 -1 -1 -1 0 0 0 0 -1 0 0 0 0 0 0 0 0 0 0 0 0 0 0 0 0 0 0 0 0 0
0 0 0 0 0 0 0 0 0 0 0 0 0 0 0 0 -1 0 0 0 0 0 0 0 0 0 0 0 0 0 0 0 0 0 0 0 0 0 0 0 0 0 0 0
0 0 0 0 0 0 0 0 -3 0 0 0 0 0 0 -4 -6 -2 0 0 0 -1 0 0 0 0 0 0 0 0 0 0 0 0 0 0 0 0 0 0 0 0 0 0
0 0 -1 0 0 0 0 0 -2 -10 0 0 0 0 -3 -1 0 0 0 -1 -1 0 0 0 0 0 0 -1 0 0 0 0 0 0 0 0 0 0 0 0 0 0 0 0
0 0 0 0 0 0 -1 0 0 -2 -1 0 0 -2 -1 0 0 0 0 0 0 0 0 0 0 0 0 0 0 0 0 0 0 0 0 0 0 0 0 0 0 0 0 0
0 0 0 0 0 0 0 0 0 -2 -12 -1 0 0 0 0 0 0 0 0 0 0 0 0 0 0 0 0 0 0 0 0 0 0 0 0 0 0 0 0 0 0 0 0
0 0 -1 0 0 0 0 -1 -3 0 -1 -18 0 -10 -5 0 0 0 0 0 0 0 0 0 0 0 0 0 0 0 0 0 0 0 0 0 0 0 0 0 0 0 0 0
Wind_Speed
5 3 3 3 3 5 12 11 11 15 17 7 15 16 15 16 14 14 14 13 13 13 14 13 14 12 13 15 16 14 16 15 15 14 15 19 18 18 19 23 24 24 32 45
6 5 4 4 4 7 11 12 13 15 17 10 14 17 15 18 17 17 16 14 14 13 13 14 11 11 12 16 16 15 18 17 17 17 18 18 20 20 22 23 25 30 33 30
6 5 5 6 5 9 11 12 12 15 16 16 8 6 8 15 18 18 17 14 15 15 15 16 13 12 14 17 18 18 17 18 21 23 25 22 22 20 20 23 30 34 33 55
7 5 5 5 5 8 12 15 15 14 13 14 9 10 10 9 14 15 13 15 16 16 17 16 16 16 16 18 19 17 20 25 25 28 29 29 31 30 28 29 29 33 38 43
8 7 6 5 6 10 13 14 14 14 12 11 9 11 11 7 9 8 12 14 10 12 15 17 14 16 18 19 18 20 21 27 28 32 31 32 37 31 28 28 31 37 41 51
8 6 6 5 5 11 12 13 13 13 12 9 11 11 9 7 6 13 12 10 11 13 14 14 16 18 20 21 21 22 24 24 28 32 26 31 39 29 26 28 28 30 36 38
9 7 6 6 7 12 11 12 11 13 12 10 12 9 10 8 10 12 11 12 14 14 13 18 19 20 21 21 20 18 21 22 25 31 31 34 27 24 22 25 25 26 33 39
9 8 7 6 7 10 12 11 13 14 12 12 11 10 11 11 13 14 14 16 17 13 18 19 21 19 21 21 17 17 16 20 25 28 30 35 38 26 26 29 30 32 38 38
11 9 8 7 7 9 12 12 13 14 14 16 14 12 13 14 15 16 16 15 15 12 15 17 21 21 20 20 16 17 13 15 20 25 31 32 24 19 28 32 41 24 29 37
12 9 8 7 9 11 11 13 14 14 16 16 14 15 15 15 15 15 14 14 14 11 15 18 19 20 18 20 20 18 18 19 22 25 30 30 26 27 23 35 39 33 36 39
12 10 10 9 9 10 13 15 16 16 17 17 17 16 15 14 14 16 13 14 15 13 16 18 18 19 17 20 19 19 18 20 22 22 28 32 22 23 27 34 41 45 46 45
13 12 11 9 8 8 11 15 15 15 18 19 19 22 22 20 17 16 14 17 13 13 15 16 16 18 17 18 21 16 21 17 23 21 24 25 34 41 38 39 42 45 44 45
16 15 12 9 7 7 12 13 12 15 19 24 24 25 25 21 19 16 15 14 13 12 16 15 17 19 17 19 18 21 22 21 23 29 25 32 36 40 42 38 37 41 40 41
16 14 12 10 8 8 11 15 13 15 17 21 19 17 18 18 14 11 11 15 15 16 17 18 18 19 18 20 21 24 24 27 26 29 33 33 30 32 39 42 41 43 44 41
14 13 11 9 7 7 12 14 15 16 18 19 21 24 25 23 17 12 7 9 9 13 16 16 18 19 20 21 25 27 23 22 21 26 27 36 39 41 41 39 39 42 47 52
14 11 11 9 7 5 12 18 19 16 17 19 18 17 19 19 11 8 6 4 7 12 15 17 18 16 19 22 26 25 23 18 18 24 31 37 40 40 38 45 41 43 47 47
7 9 10 8 6 8 16 17 17 11 11 16 19 17 13 13 8 8 8 5 11 12 15 17 17 17 16 23 26 26 26 24 29 32 33 34 34 41 41 43 47 44 46 46
6 6 9 7 5 8 13 13 8 5 11 13 16 15 14 9 10 11 9 11 12 13 16 18 18 19 18 23 24 20 20 20 22 27 32 32 33 36 39 41 43 45 47 45
8 6 5 9 14 16 16 10 8 15 16 16 14 13 14 10 10 11 10 11 13 13 14 16 14 17 17 18 22 21 20 23 29 31 33 35 38 37 39 41 43 44 44 41
11 12 15 17 17 9 4 12 17 18 20 18 19 16 15 8 9 11 13 12 14 15 13 12 16 18 13 14 18 20 23 24 28 32 35 35 34 37 37 38 38 37 38 37
19 18 18 13 12 15 17 18 18 16 18 18 19 11 14 12 13 13 12 13 13 17 14 13 18 19 15 15 16 19 22 25 26 25 26 28 30 32 33 35 35 35 35 35
19 17 15 15 17 18 20 21 19 17 18 13 15 12 8 11 12 12 11 13 12 16 11 15 18 17 13 15 18 19 22 23 23 24 25 25 27 28 30 31 32 33 34 35
15 16 17 17 19 24 24 19 18 18 15 11 8 9 5 9 8 10 10 10 10 12 14 18 17 15 14 16 17 19 20 20 20 21 21 23 25 26 28 29 29 30 32 34
18 18 20 23 23 25 22 21 18 16 15 9 6 8 10 10 7 10 12 10 11 15 18 18 16 13 13 14 16 16 17 17 17 18 20 21 23 24 26 27 27 27 29 30
20 20 24 26 23 22 21 21 19 15 12 6 8 12 11 10 11 9 11 12 14 15 17 15 12 10 12 14 15 14 14 14 15 16 18 19 21 22 24 26 27 27 27 28
21 22 23 22 23 23 20 21 21 15 13 8 12 12 12 13 12 10 9 13 15 17 14 11 10 10 12 12 11 12 12 12 13 14 15 17 18 19 21 23 25 26 27 27
24 25 26 25 23 23 21 19 20 15 13 14 13 15 12 10 13 13 13 17 18 12 12 10 9 9 9 10 10 10 10 11 12 12 13 14 15 16 19 21 23 24 25 26
Wind_Direction
222 243 278 308 315 300 284 297 302 277 265 292 274 268 270 272 278 288 288 290 292 287 292 294 295 296 306 312 309 308 309 309 301 303 306 299 299 299 299 292 293 297 294 284
219 238 262 286 290 285 282 290 289 274 264 287 271 261 266 262 263 271 276 283 288 292 294 292 301 301 308 306 305 307 302 304 302 303 302 301 296 298 297 298 298 291 291 293
215 227 256 271 275 278 284 283 285 273 272 274 281 283 279 267 260 265 272 281 282 283 285 292 293 298 304 307 304 306 309 301 295 290 300 304 302 302 301 298 293 295 288 275
211 228 251 264 261 273 281 282 280 276 277 275 278 278 279 278 280 283 290 289 288 287 286 291 294 298 304 309 307 309 303 294 295 293 294 295 294 294 294 293 293 290 297 294
212 229 242 256 252 267 280 279 280 276 281 271 273 279 283 281 295 301 295 296 307 302 295 297 298 301 302 300 309 306 307 297 300 294 297 296 293 295 293 291 293 293 295 293
204 217 235 246 242 268 284 287 281 276 274 265 273 277 282 290 296 299 304 309 310 308 311 315 312 307 303 302 302 302 304 304 301 298 307 304 297 298 295 298 298 297 295 301
211 218 230 243 251 266 284 283 279 281 271 268 277 279 289 288 295 302 308 310 309 314 323 314 310 306 303 301 299 299 305 304 305 302 306 300 312 323 319 310 307 304 303 304
217 223 232 237 253 264 276 278 279 279 274 271 277 280 284 290 295 299 301 306 306 314 312 312 311 313 311 309 298 294 293 300 305 305 303 304 308 311 307 311 310 311 308 310
221 224 226 236 251 264 270 275 279 283 277 268 279 275 280 287 291 298 303 312 317 319 315 312 306 307 312 313 321 323 305 296 299 307 307 308 323 332 326 319 312 323 320 319
222 224 228 230 245 256 267 271 277 280 277 284 276 279 281 289 293 299 307 313 317 320 312 307 306 308 316 312 312 314 313 310 297 300 303 308 317 318 328 315 313 323 322 319
226 225 227 231 242 253 263 269 274 276 277 282 280 282 287 291 292 297 309 313 310 311 306 308 312 312 314 315 315 318 312 312 310 308 306 310 329 332 319 319 317 316 315 315
226 223 226 226 235 250 269 271 276 282 277 283 283 278 279 284 293 298 303 307 314 316 313 314 320 315 321 319 316 322 312 309 316 312 315 320 316 312 316 318 317 318 317 317
223 228 228 221 224 248 271 275 279 283 282 280 279 277 278 281 280 289 301 306 311 319 320 322 320 313 320 317 316 315 315 313 310 316 319 317 317 315 315 320 322 323 323 322
217 224 223 221 216 246 267 273 279 282 287 283 288 294 288 291 291 278 280 298 308 307 310 310 312 312 317 315 316 313 313 317 315 313 317 321 327 327 323 322 323 323 322 325
217 216 210 207 206 244 272 280 279 282 278 286 284 286 283 286 293 292 269 279 288 310 313 310 307 313 313 312 315 312 318 314 315 320 326 322 322 323 324 327 328 327 323 320
213 203 194 183 194 239 274 275 277 278 284 287 291 296 299 302 309 294 276 278 298 308 314 312 315 311 316 316 315 320 326 327 327 325 326 323 322 325 328 324 332 330 326 326
188 184 188 198 197 253 270 278 286 281 283 287 288 296 313 324 319 320 316 301 308 310 312 310 312 317 317 314 306 313 317 319 321 317 323 330 334 329 332 332 329 334 331 332
204 194 205 190 232 270 270 287 327 333 293 293 291 292 303 325 317 314 316 308 303 307 308 314 313 315 313 313 321 331 334 334 335 333 329 334 339 339 340 339 337 336 334 337
216 194 201 244 256 265 269 282 295 283 285 287 287 288 300 316 319 324 328 325 318 324 315 315 322 318 312 320 324 327 331 331 326 327 334 337 337 343 345 343 344 341 341 344
220 237 247 250 257 274 305 277 274 276 273 277 276 280 290 308 319 321 323 327 324 328 331 338 324 314 310 321 326 325 326 334 333 331 335 340 347 348 354 355 355 356 353 353
234 241 246 259 252 261 264 264 267 271 276 279 279 261 269 289 295 308 323 330 335 327 336 331 330 327 337 344 335 330 334 339 344 352 354 358 0 3 6 7 10 11 10 13
237 243 246 247 254 257 256 257 263 269 274 295 287 287 266 281 293 304 319 323 333 325 347 333 325 330 340 334 333 338 343 350 355 360 4 11 15 18 19 20 25 29 28 32
232 235 238 242 245 246 249 251 260 266 281 295 300 298 306 303 300 311 324 329 329 342 331 324 321 329 327 326 335 343 352 1 7 15 21 25 25 25 26 27 32 30 30 35
234 234 232 239 243 248 252 254 266 274 278 290 292 294 302 307 303 314 319 327 335 324 318 321 330 323 328 335 343 352 358 13 23 28 30 29 30 30 31 32 36 30 28 29
237 243 241 244 252 258 259 261 268 277 285 291 292 292 297 303 309 322 325 326 324 322 325 338 356 347 338 342 350 4 16 29 31 32 32 34 37 36 32 32 35 30 27 24
248 251 252 254 253 254 261 262 261 273 276 282 292 296 298 296 309 315 317 319 314 320 335 358 12 2 356 1 17 24 35 37 34 36 38 36 38 34 29 30 33 31 29 23
249 250 249 252 256 255 261 267 268 273 271 273 290 294 297 315 305 303 306 304 315 338 353 2 9 14 19 25 29 39 45 43 44 41 35 32 34 31 28 22 29 28 26 26